When you browse on this site, cookies collect data to enhance your experience and personalize the content and advertising you see.
Visit our Privacy Policy to learn more. By continuing to use the site, you agree to this use of cookies and data.
  • In Deutschland
  • Länderverzeichnis
  • Für 7 Tage
  • Wassertemperatur
  • Wetterkarte
  • Widgets
  • user-avatar
    Anmelden

    Stündliche Wetter Düsseldorf

    Heute, 15 Oktober, Dienstag

    Zeit Temperatur Niederschläge Wind Luftdruck Luftfeuchtigkeit
    00:00 +18°C° 0 mm 3 m/S 753 mmHg 73%
    01:00 +18°C° 0 mm 2 m/S 752 mmHg 75%
    02:00 +17°C° 0 mm 2 m/S 752 mmHg 77%
    03:00 +17°C° 0 mm 2 m/S 751 mmHg 79%
    04:00 +17°C° 0 mm 2 m/S 751 mmHg 80%
    05:00 +16°C° 0 mm 2 m/S 751 mmHg 80%
    06:00 +16°C° 0 mm 2 m/S 751 mmHg 81%
    07:00 +17°C° 0 mm 2 m/S 751 mmHg 78%
    08:00 +18°C° 0 mm 2 m/S 751 mmHg 75%
    09:00 +19°C° 0 mm 2 m/S 751 mmHg 72%
    10:00 +19°C° 0 mm 2 m/S 751 mmHg 71%
    11:00 +20°C° 0 mm 2 m/S 751 mmHg 70%
    12:00 +20°C° 0 mm 3 m/S 751 mmHg 69%
    13:00 +19°C° 0.6 mm 3 m/S 751 mmHg 75%
    14:00 +17°C° 0.6 mm 3 m/S 751 mmHg 81%
    15:00 +15°C° 0.6 mm 4 m/S 750 mmHg 87%
    16:00 +14°C° 2.9 mm 3 m/S 751 mmHg 88%
    17:00 +14°C° 2.9 mm 3 m/S 751 mmHg 90%
    18:00 +14°C° 2.9 mm 3 m/S 751 mmHg 92%
    19:00 +13°C° 1.8 mm 3 m/S 752 mmHg 89%
    20:00 +13°C° 1.8 mm 4 m/S 752 mmHg 86%
    21:00 +13°C° 1.8 mm 4 m/S 753 mmHg 84%
    22:00 +13°C° 0.5 mm 4 m/S 753 mmHg 82%
    23:00 +13°C° 0.5 mm 4 m/S 753 mmHg 80%

    Morgen, 16 Oktober, Mittwoch

    Zeit Temperatur Niederschläge Wind Luftdruck Luftfeuchtigkeit
    00:00 +12°C° 0.5 mm 3 m/S 754 mmHg 79%
    01:00 +12°C° 0.1 mm 4 m/S 754 mmHg 79%
    02:00 +12°C° 0.1 mm 4 m/S 754 mmHg 80%
    03:00 +10°C° 0.1 mm 5 m/S 754 mmHg 81%
    04:00 +11°C° 0 mm 4 m/S 754 mmHg 81%
    05:00 +11°C° 0 mm 4 m/S 754 mmHg 81%
    06:00 +10°C° 0 mm 4 m/S 754 mmHg 81%
    07:00 +11°C° 0 mm 4 m/S 754 mmHg 79%
    08:00 +12°C° 0 mm 4 m/S 754 mmHg 77%
    09:00 +13°C° 0 mm 5 m/S 754 mmHg 75%
    10:00 +14°C° 0 mm 5 m/S 754 mmHg 75%
    11:00 +14°C° 0 mm 5 m/S 754 mmHg 75%
    12:00 +14°C° 0 mm 5 m/S 754 mmHg 75%
    13:00 +14°C° 0.3 mm 5 m/S 754 mmHg 77%
    14:00 +14°C° 0.3 mm 4 m/S 754 mmHg 80%
    15:00 +13°C° 0.3 mm 4 m/S 753 mmHg 83%
    16:00 +13°C° 0.2 mm 4 m/S 754 mmHg 81%
    17:00 +13°C° 0.2 mm 4 m/S 754 mmHg 80%
    18:00 +13°C° 0.2 mm 3 m/S 754 mmHg 79%
    19:00 +13°C° 0.2 mm 3 m/S 754 mmHg 79%
    20:00 +13°C° 0.2 mm 3 m/S 754 mmHg 79%
    21:00 +13°C° 0.2 mm 3 m/S 754 mmHg 80%
    22:00 +13°C° 0.9 mm 4 m/S 754 mmHg 82%
    23:00 +13°C° 0.9 mm 4 m/S 754 mmHg 84%

    übermorgen, 17 Oktober, Donnerstag

    Zeit Temperatur Niederschläge Wind Luftdruck Luftfeuchtigkeit
    00:00 +13°C° 0.9 mm 5 m/S 754 mmHg 87%
    01:00 +13°C° 0.4 mm 4 m/S 754 mmHg 86%
    02:00 +13°C° 0.4 mm 4 m/S 754 mmHg 86%
    03:00 +13°C° 0.4 mm 4 m/S 754 mmHg 85%
    04:00 +13°C° 0.2 mm 4 m/S 754 mmHg 86%
    05:00 +13°C° 0.2 mm 3 m/S 754 mmHg 87%
    06:00 +13°C° 0.2 mm 3 m/S 754 mmHg 88%
    07:00 +14°C° 0.2 mm 3 m/S 755 mmHg 87%
    08:00 +14°C° 0.2 mm 4 m/S 755 mmHg 85%
    09:00 +14°C° 0.2 mm 4 m/S 756 mmHg 84%
    10:00 +15°C° 0.1 mm 4 m/S 756 mmHg 77%
    11:00 +15°C° 0.1 mm 4 m/S 756 mmHg 69%
    12:00 +17°C° 0.1 mm 4 m/S 756 mmHg 62%
    13:00 +15°C° 0 mm 4 m/S 756 mmHg 63%
    14:00 +15°C° 0 mm 4 m/S 757 mmHg 64%
    15:00 +14°C° 0 mm 4 m/S 757 mmHg 66%
    16:00 +14°C° 0 mm 4 m/S 757 mmHg 65%
    17:00 +13°C° 0 mm 3 m/S 757 mmHg 65%
    18:00 +13°C° 0 mm 3 m/S 758 mmHg 65%
    19:00 +12°C° 0 mm 3 m/S 758 mmHg 69%
    20:00 +12°C° 0 mm 3 m/S 758 mmHg 73%
    21:00 +12°C° 0 mm 2 m/S 758 mmHg 76%
    22:00 +12°C° 0 mm 2 m/S 758 mmHg 78%
    23:00 +11°C° 0 mm 3 m/S 758 mmHg 79%

    18 Oktober, Freitag

    Zeit Temperatur Niederschläge Wind Luftdruck Luftfeuchtigkeit
    00:00 +11°C° 0 mm 3 m/S 757 mmHg 81%
    01:00 +11°C° 0 mm 3 m/S 757 mmHg 81%
    02:00 +12°C° 0 mm 3 m/S 757 mmHg 82%
    03:00 +12°C° 0 mm 3 m/S 756 mmHg 83%
    04:00 +12°C° 0.4 mm 3 m/S 756 mmHg 85%
    05:00 +12°C° 0.4 mm 4 m/S 756 mmHg 88%
    06:00 +12°C° 0.4 mm 4 m/S 755 mmHg 90%
    07:00 +13°C° 0.3 mm 4 m/S 756 mmHg 87%
    08:00 +14°C° 0.3 mm 4 m/S 756 mmHg 83%
    09:00 +14°C° 0.3 mm 5 m/S 756 mmHg 80%
    10:00 +15°C° 0.2 mm 5 m/S 756 mmHg 72%
    11:00 +16°C° 0.2 mm 5 m/S 756 mmHg 65%
    12:00 +16°C° 0.2 mm 6 m/S 756 mmHg 57%
    13:00 +16°C° 0 mm 5 m/S 756 mmHg 58%
    14:00 +17°C° 0 mm 4 m/S 756 mmHg 58%
    15:00 +17°C° 0 mm 4 m/S 756 mmHg 59%
    16:00 +16°C° 0 mm 3 m/S 756 mmHg 63%
    17:00 +14°C° 0 mm 3 m/S 757 mmHg 68%
    18:00 +13°C° 0 mm 3 m/S 757 mmHg 73%
    19:00 +12°C° 0 mm 3 m/S 757 mmHg 74%
    20:00 +12°C° 0 mm 3 m/S 757 mmHg 75%
    21:00 +12°C° 0 mm 3 m/S 757 mmHg 76%
    22:00 +11°C° 0 mm 3 m/S 757 mmHg 77%
    23:00 +11°C° 0 mm 3 m/S 757 mmHg 78%

    19 Oktober, Samstag

    Zeit Temperatur Niederschläge Wind Luftdruck Luftfeuchtigkeit
    00:00 +11°C° 0 mm 3 m/S 757 mmHg 79%
    01:00 +11°C° 0 mm 3 m/S 756 mmHg 78%
    02:00 +11°C° 0 mm 3 m/S 756 mmHg 78%
    03:00 +11°C° 0 mm 3 m/S 756 mmHg 78%
    04:00 +11°C° 0 mm 3 m/S 756 mmHg 80%
    05:00 +11°C° 0 mm 3 m/S 756 mmHg 81%
    06:00 +11°C° 0 mm 3 m/S 756 mmHg 82%
    07:00 +12°C° 0 mm 4 m/S 756 mmHg 78%
    08:00 +13°C° 0 mm 4 m/S 755 mmHg 75%
    09:00 +14°C° 0 mm 5 m/S 755 mmHg 71%
    10:00 +15°C° 0 mm 4 m/S 755 mmHg 67%
    11:00 +15°C° 0 mm 4 m/S 755 mmHg 64%
    12:00 +17°C° 0 mm 4 m/S 754 mmHg 60%
    13:00 +17°C° 0 mm 4 m/S 754 mmHg 62%
    14:00 +17°C° 0 mm 3 m/S 753 mmHg 64%
    15:00 +17°C° 0 mm 3 m/S 753 mmHg 66%
    16:00 +16°C° 0.3 mm 2 m/S 752 mmHg 72%
    17:00 +15°C° 0.3 mm 2 m/S 752 mmHg 77%
    18:00 +14°C° 0.3 mm 1 m/S 751 mmHg 83%
    19:00 +14°C° 2.4 mm 2 m/S 751 mmHg 86%
    20:00 +14°C° 2.4 mm 2 m/S 751 mmHg 89%
    21:00 +12°C° 2.4 mm 3 m/S 750 mmHg 92%
    22:00 +13°C° 0.8 mm 2 m/S 750 mmHg 91%
    23:00 +13°C° 0.8 mm 2 m/S 749 mmHg 90%

    20 Oktober, Sonntag

    Zeit Temperatur Niederschläge Wind Luftdruck Luftfeuchtigkeit
    00:00 +13°C° 0.8 mm 2 m/S 749 mmHg 90%
    01:00 +13°C° 0 mm 2 m/S 749 mmHg 88%
    02:00 +12°C° 0 mm 3 m/S 749 mmHg 86%
    03:00 +12°C° 0 mm 3 m/S 749 mmHg 85%
    04:00 +12°C° 0 mm 3 m/S 749 mmHg 85%
    05:00 +12°C° 0 mm 4 m/S 749 mmHg 84%
    06:00 +12°C° 0 mm 4 m/S 749 mmHg 84%
    07:00 +12°C° 0.1 mm 4 m/S 750 mmHg 82%
    08:00 +12°C° 0.1 mm 5 m/S 750 mmHg 80%
    09:00 +12°C° 0.1 mm 5 m/S 750 mmHg 78%
    10:00 +13°C° 0 mm 5 m/S 751 mmHg 72%
    11:00 +14°C° 0 mm 5 m/S 751 mmHg 66%
    12:00 +15°C° 0 mm 5 m/S 751 mmHg 60%
    13:00 +15°C° 0.1 mm 5 m/S 751 mmHg 61%
    14:00 +14°C° 0.1 mm 5 m/S 751 mmHg 62%
    15:00 +14°C° 0.1 mm 4 m/S 752 mmHg 63%
    16:00 +13°C° 0 mm 4 m/S 752 mmHg 67%
    17:00 +12°C° 0 mm 4 m/S 753 mmHg 71%
    18:00 +11°C° 0 mm 4 m/S 753 mmHg 74%
    19:00 +11°C° 0 mm 4 m/S 753 mmHg 74%
    20:00 +10°C° 0 mm 4 m/S 754 mmHg 74%
    21:00 +10°C° 0 mm 3 m/S 754 mmHg 74%
    22:00 +10°C° 0 mm 3 m/S 754 mmHg 75%
    23:00 +9°C° 0 mm 3 m/S 754 mmHg 76%
    Mehr zeigen